GFSFLT2_700_spd_195.txt.gz
Wind_Speed
13 3 4 4 5 5 4 5 3 2 9 4 14 16 6 10 10 7 7 7 6 7 10 17 15 10 9 5 5 7 10 12
4 8 2 2 6 2 4 3 3 2 5 6 13 13 9 2 4 4 5 7 4 6 9 11 16 15 13 12 7 9 11 12
7 5 5 4 7 8 5 4 4 4 2 3 6 8 12 4 3 2 1 5 5 4 8 13 18 19 15 13 13 10 8 12
6 7 5 6 11 13 9 5 6 2 5 6 6 11 13 11 10 6 3 3 8 8 9 9 12 15 16 15 14 10 11 11
4 4 6 10 12 12 10 6 9 6 5 9 11 12 18 16 14 12 7 8 11 10 13 13 12 11 15 17 14 15 13 12
14 11 8 11 14 12 10 8 10 12 14 16 16 17 17 19 16 20 17 12 12 17 16 12 15 17 15 17 18 19 15 13
20 20 17 15 14 11 11 13 11 15 14 18 19 17 16 17 22 21 19 22 22 21 21 18 18 20 21 20 20 19 20 17
17 16 15 15 17 15 15 15 17 16 16 17 17 17 17 19 19 23 21 19 18 19 19 22 21 21 22 24 22 24 23 19
9 13 10 9 15 15 13 10 9 8 11 11 13 17 20 19 18 19 18 18 19 18 19 20 23 22 23 25 28 27 27 24
4 5 5 7 9 11 10 10 11 12 14 15 15 16 16 20 22 25 26 25 23 21 20 20 22 25 26 25 26 33 30 29
3 5 6 8 10 8 10 14 15 15 15 15 17 19 21 21 20 22 25 27 26 27 24 21 21 25 31 24 25 30 33 32
6 4 4 5 10 12 14 14 15 14 16 20 24 28 26 30 29 29 29 27 27 27 26 24 24 22 23 30 23 25 30 34
6 6 5 10 8 11 6 7 14 23 28 32 33 32 34 31 32 36 37 36 31 31 32 27 25 26 22 22 25 29 27 30
3 3 5 9 11 10 18 25 27 26 27 31 32 32 33 34 33 31 36 35 35 37 37 34 30 29 25 25 24 23 27 29
5 5 11 17 20 20 20 22 23 27 26 30 34 34 34 33 33 32 28 30 34 34 36 37 34 33 32 29 29 28 19 24
9 6 17 15 16 16 21 24 24 25 30 33 34 33 34 34 32 32 29 24 29 36 34 37 29 33 34 30 29 32 39 35
14 14 15 12 17 22 22 26 28 28 32 32 33 33 34 35 33 32 30 27 25 28 35 37 34 31 32 33 33 32 35 37
13 17 18 18 21 23 23 25 27 33 33 31 35 38 36 38 36 33 31 27 27 25 28 34 39 38 31 35 38 37 34 31
18 19 22 20 19 19 24 27 30 34 34 38 37 37 39 40 38 35 31 28 26 24 26 25 30 38 34 33 38 39 39 36

GFSFLT2_700_spd_198.txt.gz
Wind_Speed
8 5 4 7 6 1 2 4 7 5 5 11 9 11 8 6 7 8 6 8 16 21 22 20 16 11 9 7 5 6 10 12
8 1 3 5 2 6 5 2 3 7 4 5 9 9 9 2 2 6 8 9 11 14 17 17 20 19 16 13 9 8 9 13
6 10 5 5 8 7 8 8 9 6 7 2 5 4 9 11 7 4 6 9 9 9 13 15 18 19 19 17 15 11 9 11
7 8 8 9 7 9 13 5 6 11 6 6 7 6 9 12 14 12 9 7 13 13 11 10 14 17 20 19 18 16 13 13
11 8 9 9 8 10 12 13 16 12 1 7 9 11 13 13 15 15 15 13 11 12 19 18 16 15 18 19 19 17 17 15
18 8 3 6 9 10 14 19 16 14 6 6 10 13 13 14 16 21 19 17 19 17 13 21 23 22 20 21 21 21 21 18
18 17 15 16 15 14 15 18 16 16 9 8 15 16 17 17 18 18 19 18 19 18 18 16 22 25 28 26 24 24 24 23
19 18 14 16 13 12 13 15 15 15 16 19 16 17 17 18 20 20 21 19 17 17 17 17 16 22 30 32 30 29 28 25
17 12 12 17 18 12 12 10 13 14 12 14 13 14 17 20 23 25 24 24 24 22 21 18 16 18 22 32 34 34 32 30
8 6 11 5 7 9 8 9 11 11 14 15 17 18 16 19 23 24 26 27 27 27 25 25 22 20 18 24 34 36 36 36
9 12 3 5 4 3 5 7 11 9 9 11 20 19 14 21 26 27 29 31 32 32 33 27 24 22 20 17 25 32 37 39
6 9 6 3 2 6 8 11 11 15 12 15 20 21 20 28 32 34 37 40 40 39 38 37 33 28 23 22 18 27 27 37
9 9 3 4 4 9 7 3 9 15 21 28 26 25 28 29 26 27 31 32 36 42 47 42 39 36 30 26 25 21 27 35
5 6 8 9 5 5 11 15 22 27 24 25 28 27 29 30 30 30 27 29 32 33 38 43 43 42 39 32 28 25 22 31
5 3 10 13 16 19 20 20 20 23 24 25 29 30 33 32 31 31 32 29 30 32 31 32 37 42 46 38 33 31 27 25
3 3 7 13 13 13 16 22 24 24 27 29 31 33 34 32 33 35 34 31 29 31 31 30 31 38 44 41 36 33 32 30
7 8 11 6 9 18 23 25 26 25 27 29 32 34 36 36 36 37 36 34 32 31 30 31 29 34 40 42 38 37 33 33
7 14 14 15 19 19 20 21 23 27 31 31 34 36 37 36 34 35 34 32 31 29 29 29 32 30 32 36 38 38 36 36
10 13 15 17 17 18 22 25 27 29 31 33 33 36 36 34 37 36 32 28 27 25 25 27 29 31 26 28 38 41 39 37

GFSFLT2_700_spd_201.txt.gz
Wind_Speed
11 6 8 7 11 11 8 7 5 6 16 12 10 10 9 8 9 9 6 6 9 14 16 18 19 14 13 11 7 7 9 9
11 7 9 9 5 8 9 7 2 6 10 15 8 11 10 8 7 2 5 9 10 11 15 18 19 21 19 14 13 11 8 9
10 13 14 9 10 8 11 10 8 5 6 6 10 9 8 6 6 4 6 8 11 12 10 15 16 17 20 21 19 16 13 10
15 11 10 9 11 10 11 9 5 10 8 10 10 7 3 5 11 15 13 9 10 14 13 14 15 17 20 20 22 21 18 17
17 17 10 13 13 13 15 15 14 12 7 9 8 4 7 9 15 18 17 17 15 14 14 21 21 21 22 23 24 24 23 21
13 8 9 9 10 12 14 20 19 10 11 9 3 3 1 9 13 17 20 22 19 17 15 15 22 26 25 25 23 25 25 24
21 17 14 15 18 16 14 16 17 20 7 5 3 1 2 4 12 16 18 20 21 19 18 15 16 22 29 31 29 28 28 27
24 22 20 20 19 17 16 17 17 16 16 2 1 2 4 7 7 15 18 21 21 22 21 18 15 16 21 27 35 34 33 32
20 16 16 17 15 16 14 10 10 10 5 1 3 4 8 11 10 17 22 26 27 27 28 25 23 22 20 20 26 37 40 38
18 8 10 7 1 4 6 8 8 8 8 7 7 10 15 13 10 12 19 28 29 31 33 32 30 26 25 27 25 27 38 42
16 17 10 6 1 2 2 2 9 7 8 8 11 17 14 11 10 22 31 32 35 38 39 40 38 36 32 26 28 29 29 36
12 12 11 7 5 4 2 7 3 4 7 10 12 14 15 25 27 33 35 33 33 34 37 39 41 43 43 39 31 27 34 28
15 13 3 5 2 7 5 1 3 8 10 14 16 19 24 27 26 25 27 28 32 35 37 40 41 40 39 44 43 35 33 29
11 11 7 4 4 2 5 7 11 13 15 18 20 24 25 26 28 29 29 29 30 32 33 34 35 37 37 37 42 43 37 34
5 2 2 6 7 8 11 10 12 15 16 20 23 24 25 27 28 29 30 30 30 33 37 35 33 32 35 36 34 39 42 39
4 6 4 6 6 6 8 13 16 19 21 21 23 25 28 31 33 33 36 34 34 35 38 36 33 32 34 33 32 34 38 36
6 7 4 3 5 11 16 17 17 18 20 23 25 29 35 35 36 36 35 33 34 37 37 34 32 33 32 33 33 34 37 35
2 4 11 13 14 15 13 14 18 20 25 25 28 31 32 34 37 35 31 32 34 34 31 33 32 32 32 32 32 33 34 34
6 11 11 10 10 15 14 14 17 20 23 26 27 29 31 32 33 30 31 34 36 34 32 31 31 30 31 31 29 29 30 33

GFSFLT2_700_spd_204.txt.gz
Wind_Speed
16 12 12 11 12 13 12 24 14 8 17 12 11 13 12 12 16 13 11 4 6 10 11 14 17 17 14 12 11 9 9 7
12 10 12 14 11 13 9 4 7 4 6 12 13 13 13 10 6 5 11 15 14 12 10 14 16 23 18 18 14 13 13 9
14 13 14 10 10 10 11 21 6 7 15 19 14 12 12 11 8 5 1 4 10 14 15 4 14 17 24 20 15 19 17 14
17 14 13 11 13 9 10 9 19 15 15 18 14 12 10 8 5 0 6 9 11 10 14 18 17 13 20 25 19 18 22 20
16 9 13 9 13 13 14 16 21 16 9 13 12 12 10 8 1 5 10 12 17 15 12 15 20 24 24 16 23 23 22 23
22 8 15 22 19 15 12 13 14 5 12 8 10 11 6 4 2 9 14 17 18 22 21 16 14 17 23 30 27 21 24 25
11 6 9 20 18 19 10 9 9 13 8 16 12 8 6 2 8 15 17 19 18 19 21 20 18 16 18 21 28 33 28 29
20 19 19 22 23 15 15 12 11 11 13 6 6 4 3 1 6 8 18 18 17 19 22 26 26 23 20 19 20 24 33 35
19 15 16 19 13 11 10 9 5 1 4 6 4 1 3 5 9 13 7 15 24 26 28 30 29 29 27 26 25 24 23 27
18 17 14 3 7 3 4 2 1 4 4 1 3 5 10 10 9 11 15 23 30 32 31 33 34 35 33 31 29 28 27 28
17 17 13 5 5 4 3 4 2 7 3 4 7 9 4 12 14 20 25 32 35 38 37 36 35 35 35 32 34 33 32 30
15 12 12 7 6 8 3 5 4 5 4 6 9 9 12 22 25 30 33 34 35 34 35 36 36 38 40 39 35 33 33 38
16 16 5 7 3 7 5 4 2 2 5 9 11 16 25 28 26 25 28 29 29 31 33 36 38 40 41 42 41 35 34 35
15 18 5 8 1 2 6 1 3 6 9 13 18 24 22 22 25 26 28 28 30 33 35 38 39 41 40 39 39 39 33 32
3 3 2 4 5 5 8 9 14 19 19 16 18 19 21 22 26 31 32 36 35 36 38 40 38 36 41 36 37 38 36 32
4 3 6 2 4 4 7 9 15 14 15 16 18 23 26 29 31 34 35 35 37 38 35 31 30 35 37 36 35 34 37 32
9 8 2 7 10 15 14 12 9 12 17 22 24 24 26 29 32 34 36 35 34 32 35 36 35 37 35 35 35 34 36 35
9 13 12 5 9 11 16 11 13 17 18 19 23 25 27 31 33 33 33 31 31 32 37 39 38 36 35 35 35 34 35 34
4 14 15 8 9 16 14 12 12 18 18 21 24 29 30 31 31 30 27 28 31 37 39 38 36 35 34 32 31 31 32 31

GFSFLT2_700_spd_207.txt.gz
Wind_Speed
15 15 10 10 17 16 9 4 5 4 6 14 11 15 18 20 17 11 10 6 5 6 11 13 17 20 16 9 8 10 9 9
11 15 13 16 17 12 10 4 2 7 5 12 9 10 12 16 19 18 18 15 14 13 11 13 14 18 22 18 12 11 12 11
9 14 14 12 12 11 12 5 5 5 9 13 24 15 14 13 14 15 15 15 13 12 12 14 10 12 18 18 15 13 14 12
16 9 11 10 13 14 12 8 11 7 7 22 5 19 17 14 12 9 8 5 3 2 11 16 14 16 20 20 19 19 18 16
11 14 20 13 10 22 18 18 6 7 15 11 18 14 15 13 11 5 2 6 10 13 12 8 15 20 17 20 25 25 23 21
7 4 6 32 23 33 19 15 6 9 17 25 23 17 8 8 9 8 8 11 13 14 13 12 11 13 18 24 26 31 31 25
7 5 4 4 25 17 19 14 10 14 18 21 23 16 10 9 13 13 16 16 14 16 15 14 15 14 15 17 20 25 29 30
5 5 15 13 14 13 14 17 8 13 23 16 16 15 11 3 11 19 20 20 17 14 18 23 23 23 24 22 22 24 21 21
8 9 11 10 11 5 4 10 13 19 23 16 16 15 14 10 9 13 11 15 21 23 29 29 26 24 25 27 26 25 26 25
9 7 3 6 7 7 11 16 8 12 14 13 14 13 8 9 13 15 17 22 26 31 34 36 34 31 28 25 25 29 31 29
13 9 6 8 11 10 11 15 16 17 14 11 10 7 7 10 18 24 26 29 32 36 37 35 33 33 33 32 28 24 26 28
6 4 3 10 15 14 9 10 12 15 17 17 19 15 11 15 19 25 31 35 33 30 30 33 35 36 34 34 35 35 29 27
12 11 7 9 13 10 9 8 14 17 20 22 23 24 27 25 27 29 27 28 30 30 30 30 33 36 38 39 40 41 35 35
10 11 5 14 15 10 13 16 18 20 20 20 22 24 26 24 26 28 29 30 33 35 34 33 34 37 38 37 36 38 36 34
2 3 7 11 11 12 14 17 16 17 19 22 19 21 24 26 27 28 30 31 32 34 35 34 36 37 37 32 32 35 36 34
5 8 9 10 13 15 14 12 14 16 19 20 22 23 24 24 25 26 27 29 32 33 34 34 34 33 34 35 36 38 37 33
12 16 13 13 11 13 14 17 19 21 20 20 21 21 23 23 24 28 30 30 31 32 32 31 33 35 36 37 38 37 36 34
20 17 18 17 16 17 17 20 22 18 16 18 21 22 24 27 28 29 30 30 29 29 30 30 31 31 30 30 32 32 34 32
20 17 14 15 16 17 18 17 13 15 17 19 20 22 24 26 27 26 25 28 26 26 27 29 34 33 32 28 27 26 27 28